Location: Ecklingerode
(51.5036°N, 10.3122°E)
Time: 13:14:27
(UTC+00:00)

USA 215 - Pass Details

Date: 29 October 2020
Orbit: 1102 x 1106 km, 123.0° (Epoch: 23 November)

Event Time Altitude Azimuth Distance (km) Brightness Sun altitude
Exits shadow 19:57:29 53° 280° (W) 1,335 3.8 -37.2°
Drops below altitude 10° 20:02:25 10° 299° (WNW) 2,966 6.2 -37.9°
Sets 20:04:56 0° 301° (WNW) 3,927 7.1 -38.2°
